Temp
66 66 66 66 66 66 66 66 66 66 66 67 67 67 67 66 67 66 69 71 73 79 77 71 72 69 65 59 59 55 44 39 41 43 43 46 44 46 46 43 42 42 41 45 49
66 66 66 66 65 65 66 66 66 66 67 67 67 66 66 65 64 69 76 80 79 79 73 70 68 65 57 56 54 50 42 42 46 45 43 46 45 45 42 40 39 39 45 47 47
66 65 65 65 66 66 66 66 66 66 67 67 67 66 66 63 64 66 79 79 79 77 72 68 65 62 54 53 51 47 43 47 46 47 49 46 44 46 41 38 40 40 41 43 42
65 65 65 65 66 66 66 66 66 67 67 67 66 66 65 65 54 70 78 78 78 72 71 66 62 55 49 48 50 45 48 49 50 50 48 45 46 42 41 41 47 45 44 43 41
65 65 65 65 66 66 66 66 66 66 66 66 66 66 65 62 60 75 75 76 74 72 68 65 58 53 48 49 49 45 45 48 48 48 46 48 43 42 39 43 45 45 45 42 40
64 65 65 65 66 65 66 66 66 66 65 66 66 66 65 58 71 72 72 73 71 68 64 62 59 57 50 47 46 45 46 46 47 46 46 44 41 42 42 43 43 43 41 40 41
64 64 64 64 65 65 65 66 66 65 65 66 67 71 65 59 70 71 74 68 68 68 64 62 61 58 52 47 49 48 44 43 43 45 43 45 39 39 43 43 41 40 39 41 41
64 64 64 64 64 64 64 65 65 64 65 66 67 66 59 70 70 71 71 71 72 69 66 63 63 56 53 51 49 44 42 38 43 45 44 43 38 41 42 41 38 38 36 39 40
64 63 63 63 63 63 63 64 65 66 67 67 65 64 55 75 70 68 68 67 67 66 66 71 61 52 50 45 41 41 36 36 41 46 43 39 38 40 41 41 37 36 35 38 37
62 62 62 62 62 62 62 64 67 68 70 72 71 62 66 61 66 67 66 68 65 63 62 60 52 47 44 43 38 36 35 37 38 42 41 36 36 39 40 39 37 35 34 35 37
62 61 62 62 62 62 65 66 64 63 64 56 55 57 60 67 66 66 64 64 63 58 49 51 47 40 39 41 43 42 38 38 40 43 40 38 37 40 39 37 35 34 34 34 36
61 61 61 62 62 61 63 60 56 61 55 61 61 61 63 61 61 65 65 59 57 48 49 48 40 45 48 48 44 42 39 37 40 43 41 37 38 39 37 38 38 37 34 34 35
62 61 61 61 61 64 61 59 62 61 55 59 61 60 60 64 55 59 62 55 51 47 44 44 45 52 49 44 44 39 38 37 39 40 39 38 36 32 36 37 38 38 37 35 35
62 62 60 59 65 60 60 62 62 61 47 53 58 61 63 60 56 62 59 56 53 45 45 44 49 49 45 43 42 37 44 43 41 36 32 35 31 31 31 35 37 37 34 34 35
61 61 61 62 63 61 62 61 60 63 38 53 57 65 59 58 55 59 58 58 47 46 46 42 44 44 44 43 44 43 45 41 40 34 30 30 29 34 29 32 36 35 34 33 34
60 60 61 64 62 58 60 59 63 50 37 49 56 55 54 55 55 57 55 57 53 49 47 44 48 45 43 47 46 46 40 39 34 33 29 28 31 34 31 34 34 32 33 34 33
60 61 63 64 61 60 60 60 49 41 51 47 49 53 49 49 52 50 46 43 42 40 38 44 43 45 47 42 44 43 36 32 32 30 31 30 29 37 36 35 35 35 32 32 32
60 61 61 63 59 59 60 55 38 46 45 51 50 50 46 47 46 47 43 41 41 40 37 37 39 42 45 41 38 37 36 33 29 28 29 31 29 38 33 33 34 35 33 31 30
60 59 59 61 61 59 57 44 45 46 51 51 50 44 43 47 46 44 37 39 39 38 36 35 38 43 45 44 42 37 35 36 33 25 25 29 33 38 32 32 31 31 31 29 29
58 58 58 60 59 59 52 46 45 49 51 50 45 45 41 42 42 40 37 41 42 43 40 36 36 41 43 44 43 38 42 34 31 27 26 28 28 33 34 33 33 30 29 29 29
57 56 61 59 60 54 47 44 47 52 52 50 47 44 43 42 41 39 39 41 42 42 41 37 36 38 40 38 38 38 35 34 33 30 27 22 30 37 36 36 33 32 31 29 28
53 52 59 59 53 41 45 47 51 50 51 50 49 47 45 45 40 39 41 41 43 42 38 36 36 34 39 37 39 37 35 36 31 28 26 24 28 35 32 35 35 32 32 29 29
52 51 58 59 47 43 44 48 49 49 48 49 47 48 46 44 40 41 41 43 44 42 39 39 36 34 38 36 36 34 36 34 32 30 26 25 32 34 30 31 32 30 29 28 27
51 49 52 50 47 48 45 46 46 49 49 49 48 47 44 41 42 42 40 43 43 43 50 45 36 38 37 38 36 33 35 35 34 27 27 28 36 41 35 33 30 29 27 26 26
50 49 48 47 48 46 47 47 46 46 48 48 45 47 46 40 40 40 40 39 42 47 39 40 35 33 37 39 36 37 37 35 33 33 33 35 32 45 40 34 32 30 27 26 24
50 49 47 45 48 47 45 46 48 46 48 46 46 47 45 43 45 44 43 41 41 37 37 37 36 32 35 35 35 35 36 36 34 33 33 37 36 39 28 27 27 27 27 27 26
48 48 51 46 45 47 47 48 49 50 45 46 47 46 44 44 43 40 41 42 43 41 37 36 34 33 33 34 34 35 39 35 34 34 36 34 43 32 31 31 29 27 28 28 26
MSLP
1018.22 1018.39 1017.90 1018.04 1018.25 1018.33 1017.91 1018.05 1018.06 1018.06 1017.46 1017.19 1016.95 1016.73 1016.41 1016.18 1015.76 1015.55 1015.46 1016.25 1015.65 1014.74 1014.48 1014.66 1014.83 1015.37 1015.86 1018.05 1019.22 1020.26 1023.50 1026.26 1026.88 1027.53 1028.42 1028.89 1029.43 1030.23 1030.77 1031.33 1031.93 1032.36 1032.58 1032.98 1033.50
1018.37 1018.17 1018.24 1018.32 1018.47 1018.26 1018.34 1018.16 1017.96 1018.15 1017.63 1017.20 1017.01 1016.72 1016.52 1016.38 1016.18 1015.58 1015.77 1015.47 1015.04 1014.63 1014.72 1015.20 1015.97 1016.36 1018.27 1019.94 1020.86 1022.01 1024.96 1026.28 1026.74 1027.12 1028.03 1028.73 1029.22 1030.07 1030.96 1031.70 1032.58 1032.78 1033.05 1033.32 1033.76
1018.50 1018.35 1018.42 1018.44 1018.47 1018.31 1018.58 1018.17 1018.31 1018.04 1017.71 1017.40 1017.10 1016.80 1016.58 1016.44 1016.32 1016.55 1015.57 1015.19 1014.90 1014.78 1015.06 1015.83 1016.60 1017.50 1020.09 1021.35 1022.82 1023.86 1025.62 1026.43 1026.96 1027.22 1027.68 1028.64 1029.49 1030.06 1030.83 1031.63 1032.01 1032.59 1033.24 1033.69 1034.10
1018.66 1018.48 1018.41 1018.55 1018.59 1018.66 1018.53 1018.37 1018.32 1018.06 1017.78 1017.49 1017.18 1016.89 1016.64 1016.41 1017.56 1016.79 1016.06 1015.45 1015.14 1015.06 1015.46 1016.43 1017.39 1019.24 1021.67 1023.08 1023.89 1025.17 1026.41 1026.61 1027.29 1027.63 1028.12 1028.95 1029.61 1030.25 1030.75 1030.93 1031.12 1032.27 1032.99 1033.57 1033.99
1018.66 1018.66 1018.67 1018.62 1018.79 1018.87 1018.64 1018.28 1018.25 1018.12 1017.83 1017.55 1017.19 1017.05 1016.91 1017.63 1017.98 1017.00 1016.38 1015.59 1015.25 1015.44 1016.36 1017.20 1018.48 1020.28 1022.56 1023.78 1024.47 1025.55 1026.71 1027.15 1027.58 1027.98 1028.57 1029.06 1029.71 1030.25 1030.92 1031.35 1031.73 1032.57 1033.10 1033.54 1033.95
1018.62 1018.89 1018.83 1018.73 1019.10 1018.88 1018.54 1018.37 1018.31 1018.07 1017.88 1017.57 1017.31 1017.09 1017.17 1017.84 1017.78 1017.53 1016.72 1015.99 1016.25 1016.41 1017.41 1017.81 1019.10 1020.36 1022.67 1024.46 1025.10 1026.21 1026.78 1027.53 1027.97 1028.35 1028.76 1029.27 1029.95 1030.28 1031.35 1031.79 1032.29 1032.76 1033.29 1033.57 1033.87
1018.98 1018.91 1018.99 1019.11 1019.22 1018.77 1018.58 1018.50 1018.31 1018.03 1017.91 1017.70 1017.40 1016.95 1017.69 1018.22 1017.92 1017.64 1017.07 1017.47 1017.41 1017.44 1018.34 1019.16 1019.62 1020.43 1022.98 1024.94 1025.86 1026.22 1027.13 1027.56 1027.99 1028.27 1028.73 1029.17 1030.20 1030.25 1030.74 1031.80 1032.55 1033.01 1033.37 1033.67 1033.97
1019.13 1019.30 1019.28 1019.21 1018.99 1018.79 1018.78 1018.56 1018.19 1017.98 1017.79 1017.73 1017.46 1017.21 1018.00 1017.78 1017.84 1017.71 1017.76 1018.01 1018.13 1018.35 1019.00 1019.72 1019.87 1021.24 1023.25 1024.77 1025.67 1026.14 1026.78 1027.40 1027.60 1028.08 1028.75 1029.27 1029.35 1029.85 1030.81 1031.73 1032.64 1033.23 1033.55 1033.80 1033.92
1019.29 1019.52 1019.34 1019.14 1019.06 1018.87 1018.73 1018.24 1018.03 1017.87 1017.77 1017.62 1017.55 1017.51 1018.39 1017.79 1018.19 1018.61 1018.50 1018.71 1018.69 1018.88 1019.25 1019.53 1020.25 1022.72 1024.14 1024.89 1025.81 1026.30 1026.62 1027.00 1027.36 1027.88 1028.66 1029.49 1029.30 1029.85 1030.90 1031.72 1032.58 1033.26 1033.58 1033.76 1034.14
1019.50 1019.54 1019.40 1019.39 1019.16 1018.83 1018.43 1018.11 1017.95 1017.73 1017.71 1017.58 1017.91 1018.41 1018.81 1019.35 1019.11 1019.14 1018.98 1018.87 1019.11 1019.26 1019.61 1020.26 1021.75 1023.36 1024.64 1025.10 1025.65 1025.86 1026.17 1026.49 1027.01 1027.59 1028.47 1029.33 1029.13 1029.92 1030.68 1031.43 1032.10 1032.80 1033.38 1033.49 1033.85
1019.51 1019.58 1019.63 1019.62 1019.23 1018.78 1018.22 1018.34 1018.98 1018.90 1019.08 1019.62 1019.70 1019.64 1019.58 1019.45 1019.24 1019.50 1019.61 1019.48 1019.68 1020.38 1021.37 1021.99 1022.87 1024.15 1024.60 1024.70 1024.72 1024.95 1025.44 1025.87 1026.21 1026.95 1028.10 1028.54 1028.87 1029.19 1030.12 1031.15 1031.83 1032.39 1032.73 1033.23 1033.63
1019.62 1019.68 1019.79 1019.62 1019.27 1018.89 1018.72 1019.92 1020.44 1020.59 1020.49 1019.98 1019.78 1019.74 1019.74 1019.76 1019.78 1019.96 1019.73 1020.34 1020.72 1021.82 1022.19 1022.67 1023.64 1023.96 1024.09 1024.23 1024.41 1024.69 1025.05 1025.51 1025.96 1026.84 1027.85 1028.02 1027.98 1028.30 1029.25 1029.97 1030.71 1031.41 1032.06 1032.89 1033.59
1019.71 1019.82 1019.76 1019.55 1019.25 1019.07 1019.73 1020.43 1020.47 1020.43 1020.58 1020.36 1020.07 1019.90 1020.00 1020.01 1020.67 1020.83 1020.68 1021.17 1021.83 1022.53 1023.01 1023.30 1023.89 1023.75 1023.90 1024.35 1024.44 1024.65 1024.94 1025.37 1026.15 1026.69 1027.39 1027.96 1027.52 1028.08 1028.91 1029.53 1030.17 1030.72 1031.52 1032.55 1033.22
1019.79 1019.79 1019.69 1019.41 1019.53 1020.06 1020.29 1020.35 1020.30 1020.45 1020.92 1020.90 1020.23 1020.00 1020.14 1020.41 1021.04 1021.12 1021.28 1021.67 1022.39 1023.13 1023.47 1023.90 1023.85 1023.80 1023.99 1024.34 1024.64 1024.80 1024.92 1025.38 1026.06 1027.04 1027.93 1028.36 1028.93 1027.99 1028.68 1029.20 1029.67 1030.30 1031.43 1032.32 1033.11
1019.95 1019.76 1019.71 1019.45 1019.88 1020.48 1020.67 1020.43 1020.26 1020.44 1021.16 1021.10 1020.32 1019.91 1020.47 1021.03 1021.75 1021.63 1021.91 1021.75 1022.84 1023.45 1023.90 1024.23 1024.12 1024.06 1024.24 1024.51 1024.73 1025.07 1025.24 1025.82 1026.48 1027.28 1028.08 1028.67 1029.59 1027.50 1028.59 1028.85 1028.94 1029.93 1031.22 1032.23 1032.84
1020.02 1019.87 1019.77 1019.90 1020.22 1020.60 1020.48 1020.34 1020.43 1021.14 1021.19 1021.01 1020.62 1020.58 1021.03 1021.72 1022.19 1022.29 1022.38 1022.52 1023.24 1023.70 1024.05 1024.24 1024.13 1024.27 1024.40 1024.56 1024.85 1025.15 1025.65 1026.34 1026.99 1027.58 1028.45 1028.61 1029.33 1027.51 1027.89 1027.91 1028.61 1029.67 1030.80 1031.98 1032.86
1020.16 1020.04 1019.89 1020.29 1020.84 1020.62 1020.47 1020.83 1021.73 1022.12 1021.86 1021.58 1021.30 1021.38 1021.86 1022.51 1022.94 1023.33 1023.87 1024.48 1025.03 1025.02 1024.96 1024.58 1024.43 1024.44 1024.59 1024.87 1025.13 1025.44 1026.09 1026.94 1027.65 1028.12 1028.58 1028.57 1029.13 1026.60 1026.70 1027.62 1028.57 1029.52 1030.78 1031.97 1032.90
1020.33 1020.14 1020.55 1020.66 1020.77 1020.68 1020.82 1021.88 1022.34 1022.10 1021.96 1021.73 1021.73 1021.90 1022.50 1022.98 1023.70 1024.20 1024.84 1025.84 1026.15 1026.15 1026.08 1025.75 1024.99 1024.82 1024.92 1025.21 1025.62 1026.18 1026.75 1027.64 1028.77 1029.37 1029.06 1028.85 1028.32 1025.91 1026.67 1027.77 1028.64 1029.43 1030.81 1032.14 1033.01
1020.42 1020.77 1020.92 1020.92 1020.73 1020.80 1021.49 1022.67 1022.31 1022.24 1021.93 1022.02 1022.11 1022.42 1022.89 1023.23 1023.71 1024.47 1025.38 1026.13 1026.55 1026.56 1026.76 1026.53 1025.65 1025.22 1025.19 1025.41 1025.97 1026.60 1027.29 1027.97 1028.53 1029.67 1030.11 1028.20 1027.16 1025.83 1026.87 1028.13 1029.25 1030.38 1031.43 1032.35 1033.32
1021.02 1021.39 1021.34 1021.04 1020.89 1021.24 1022.32 1022.78 1022.64 1022.42 1022.23 1022.20 1022.35 1022.66 1023.17 1023.57 1024.09 1024.67 1025.62 1026.34 1026.70 1026.79 1026.89 1027.19 1026.70 1025.70 1025.73 1025.75 1026.31 1026.64 1027.55 1028.33 1029.15 1030.04 1030.14 1028.35 1027.88 1026.82 1026.70 1027.81 1029.28 1030.62 1031.59 1032.42 1033.50
1021.55 1022.05 1021.40 1021.15 1021.14 1022.30 1023.08 1023.07 1022.82 1022.56 1022.39 1022.42 1022.53 1022.85 1023.23 1023.71 1024.32 1025.06 1025.89 1026.68 1026.87 1027.07 1027.19 1027.42 1027.66 1026.55 1026.24 1026.19 1026.40 1027.22 1027.81 1028.81 1029.62 1030.40 1030.70 1029.99 1027.02 1025.08 1025.87 1027.04 1028.41 1029.64 1030.88 1032.06 1033.31
1022.14 1022.43 1021.66 1021.34 1022.39 1023.23 1023.51 1023.11 1022.85 1022.74 1022.64 1022.59 1022.67 1022.96 1023.36 1023.82 1024.50 1025.33 1026.01 1026.58 1027.04 1027.23 1027.65 1028.03 1028.15 1027.64 1026.59 1026.50 1026.52 1026.95 1027.69 1028.61 1030.03 1030.75 1030.97 1030.64 1026.72 1025.08 1025.95 1026.93 1027.94 1029.13 1030.36 1031.85 1033.06
1022.66 1022.49 1021.87 1021.73 1022.99 1023.83 1023.61 1023.36 1023.05 1023.00 1022.87 1022.92 1022.99 1023.17 1023.54 1024.04 1024.85 1025.46 1026.16 1026.94 1027.16 1027.38 1027.80 1028.30 1028.51 1028.06 1026.89 1027.11 1026.94 1027.29 1027.86 1028.65 1029.60 1030.30 1030.29 1030.16 1026.21 1025.14 1026.11 1027.13 1028.07 1029.28 1030.60 1032.01 1033.14
1023.25 1023.25 1022.76 1022.83 1023.24 1023.23 1023.57 1023.47 1023.39 1023.16 1023.10 1023.07 1023.24 1023.51 1023.93 1024.39 1024.86 1025.58 1026.47 1027.23 1027.54 1027.74 1028.01 1028.32 1028.77 1028.50 1027.97 1027.02 1027.02 1027.52 1027.82 1028.42 1029.16 1030.27 1029.48 1028.12 1025.67 1025.04 1025.99 1027.18 1028.33 1029.58 1030.79 1032.03 1033.06
1023.54 1023.51 1023.50 1023.62 1023.34 1023.15 1023.13 1023.24 1023.31 1023.35 1023.37 1023.30 1023.64 1023.80 1024.09 1024.77 1025.24 1025.84 1026.59 1027.49 1028.00 1028.22 1028.49 1028.79 1029.06 1028.77 1027.63 1026.98 1027.11 1026.97 1027.26 1027.95 1028.50 1028.13 1028.40 1025.92 1025.98 1024.30 1025.40 1026.57 1027.45 1029.12 1030.83 1032.05 1032.94
1023.77 1023.94 1023.82 1023.69 1023.19 1023.18 1023.23 1023.36 1023.13 1023.34 1023.46 1023.79 1023.83 1023.85 1024.45 1024.83 1025.03 1025.81 1026.49 1027.14 1027.56 1028.71 1028.93 1029.33 1029.37 1029.19 1027.97 1026.86 1026.86 1026.53 1026.21 1026.72 1027.25 1027.26 1026.95 1025.83 1025.29 1024.18 1025.39 1026.54 1027.66 1028.94 1030.45 1031.51 1032.31
1023.83 1023.81 1023.72 1023.91 1023.56 1023.36 1022.83 1022.60 1022.76 1023.06 1023.82 1023.80 1023.90 1024.32 1025.00 1025.33 1025.65 1026.10 1026.47 1026.88 1027.16 1028.24 1029.22 1029.71 1029.89 1029.92 1028.68 1027.31 1026.52 1025.71 1023.87 1024.87 1025.06 1025.15 1025.00 1024.98 1023.53 1024.45 1025.55 1026.52 1027.41 1028.72 1029.81 1030.74 1031.64
Wind_Speed
4 2 4 3 3 3 2 1 3 6 6 8 10 11 12 14 12 2 13 4 9 16 6 3 7 5 5 8 8 3 7 3 5 5 6 4 4 2 3 6 3 4 4 7 9
3 4 2 3 3 2 0 0 2 5 7 9 10 11 12 11 3 10 1 17 14 7 7 6 6 8 8 7 6 8 6 2 1 5 6 5 3 7 5 3 5 4 6 6 5
3 3 2 3 2 2 1 1 3 6 9 10 10 11 12 5 6 6 14 22 15 2 5 4 5 7 8 5 7 5 5 4 4 5 8 7 4 3 9 2 6 9 9 6 5
3 2 3 2 1 1 2 2 5 7 9 10 11 12 12 3 4 7 20 19 9 3 4 7 7 7 7 6 4 9 6 4 5 5 5 6 6 5 1 2 8 10 8 6 6
3 3 2 2 1 2 1 3 6 7 9 10 11 11 2 9 3 8 18 13 4 4 7 5 7 5 7 6 3 8 3 5 6 8 6 6 4 5 1 5 9 8 6 7 6
4 3 2 2 2 1 2 5 7 8 9 11 12 8 7 11 4 9 9 8 10 8 8 8 6 8 10 6 6 4 8 6 4 3 3 5 2 0 3 6 8 8 7 6 7
2 3 2 1 2 1 4 5 7 8 9 10 11 4 10 3 3 7 10 6 6 4 7 5 5 7 7 6 4 5 6 3 1 3 2 7 2 5 8 8 8 7 6 6 5
3 2 2 1 2 4 7 6 7 9 10 7 9 5 5 2 2 9 6 7 8 8 10 8 10 12 7 6 5 5 4 2 3 4 1 1 7 4 10 12 9 8 7 6 5
4 2 2 3 5 6 9 7 7 7 6 7 4 7 2 7 7 5 6 4 2 4 6 3 7 7 3 5 4 6 0 1 2 6 4 1 6 3 7 9 9 8 8 7 5
4 3 4 6 7 9 9 2 5 3 4 1 3 7 7 4 4 4 4 4 4 2 5 9 7 5 5 5 2 2 1 2 4 5 4 4 12 4 9 9 10 9 8 8 7
4 4 5 7 9 10 4 4 7 9 11 4 1 3 2 7 2 7 5 3 4 9 5 5 8 3 0 0 1 2 2 3 3 5 4 7 9 8 10 7 8 9 9 8 7
3 4 6 9 9 8 4 6 2 3 5 3 1 3 1 0 5 10 5 4 5 3 4 7 3 2 2 4 1 2 1 3 2 3 6 3 11 6 9 10 10 12 10 8 5
2 4 7 9 10 4 5 3 2 3 5 4 2 3 2 4 2 7 5 2 5 5 5 5 0 2 2 4 3 1 2 2 3 2 2 6 8 2 2 2 5 7 5 5 8
3 4 7 10 6 2 3 3 2 2 6 6 4 4 4 1 5 3 3 3 6 3 2 3 3 1 2 2 2 2 1 0 2 3 3 4 7 4 3 6 6 8 7 7 7
6 5 5 6 5 3 1 4 1 4 3 1 4 1 2 5 2 5 2 5 3 2 3 2 1 3 3 1 2 3 2 2 1 3 3 2 2 8 2 7 12 8 8 7 8
6 7 1 4 3 1 4 3 4 8 3 1 2 3 3 6 4 5 6 8 3 3 3 1 0 2 1 1 1 1 2 5 4 3 3 1 3 8 4 6 3 3 8 9 8
7 6 4 1 1 4 2 4 7 4 2 1 0 3 3 4 5 6 6 8 3 2 4 4 1 1 2 1 1 4 5 5 7 5 5 2 0 12 4 5 3 6 9 9 7
5 4 5 2 2 2 4 7 1 2 4 0 1 2 2 1 3 5 3 3 4 4 2 2 5 1 2 2 1 3 3 5 4 4 6 1 7 7 1 3 3 3 8 8 7
4 3 2 4 4 3 7 3 6 5 3 6 2 2 1 1 2 4 2 2 1 2 2 1 4 0 2 2 2 1 3 1 3 2 2 4 8 7 1 2 2 6 7 8 7
3 2 2 5 3 5 6 5 3 2 2 2 5 2 4 2 1 2 1 1 2 2 2 1 5 0 1 2 4 2 5 2 3 3 6 6 7 8 5 6 7 7 8 7 6
4 3 3 5 3 6 3 6 3 3 2 4 5 3 2 3 2 2 2 0 1 1 2 2 3 3 1 3 5 2 1 5 4 4 3 5 9 7 5 5 10 10 10 9 8
3 1 3 2 4 1 3 4 1 3 1 1 3 2 5 5 3 2 4 1 1 2 2 1 4 5 4 1 2 1 3 4 5 4 2 2 12 2 2 5 7 9 10 8 8
1 2 2 4 3 2 2 1 2 3 2 3 3 1 1 4 2 3 3 2 2 2 4 4 0 5 6 2 3 2 3 4 4 3 7 4 10 3 1 1 3 8 8 8 8
2 1 4 4 1 7 5 4 3 1 2 2 3 2 3 2 2 5 3 2 1 2 6 3 2 6 6 5 2 4 5 5 5 3 4 10 11 13 7 8 6 6 8 8 8
2 3 1 3 3 4 4 6 5 5 1 3 1 4 5 4 2 4 3 3 1 3 3 4 3 3 7 9 4 6 8 9 10 7 8 5 8 21 7 10 11 9 8 8 8
1 1 2 1 1 6 3 7 9 4 7 5 4 5 5 5 6 8 6 5 4 1 4 1 1 3 7 2 4 7 9 10 8 4 12 17 22 5 1 4 6 10 12 10 8
0 1 3 1 1 3 5 6 9 8 1 1 4 6 4 2 2 3 5 5 6 7 5 4 3 3 7 4 8 7 8 9 6 6 7 7 10 5 4 7 9 11 13 12 9
Wind_Direction
118 129 105 101 127 169 121 239 328 325 330 338 342 338 342 339 324 82 44 278 312 316 341 307 42 28 56 58 40 88 67 106 162 153 149 170 127 62 51 93 53 356 110 128 144
99 78 117 125 153 121 185 273 342 311 331 344 338 336 334 330 333 44 165 341 346 345 40 42 36 19 52 31 27 61 81 118 43 140 148 145 121 145 101 95 41 59 57 98 92
82 111 118 114 130 95 236 53 312 326 338 338 335 332 325 311 48 321 339 339 348 95 76 89 77 62 61 29 3 25 115 147 357 113 120 130 110 93 128 200 194 177 164 144 136
46 70 98 98 134 176 188 346 330 337 337 334 335 331 317 4 75 285 334 329 2 93 65 45 42 57 67 52 356 92 42 110 149 121 106 130 118 102 297 247 156 155 149 151 149
59 79 107 120 176 197 296 353 337 329 335 335 334 317 13 45 8 311 328 335 49 57 56 89 55 106 94 105 72 80 126 55 87 90 86 111 107 156 92 107 107 131 144 148 132
66 115 118 92 215 214 342 339 325 333 339 341 324 298 68 78 299 333 333 15 29 43 36 36 104 107 85 59 55 82 89 108 45 95 103 113 144 318 173 142 133 148 158 166 152
90 94 110 182 237 354 336 320 319 330 330 329 326 77 68 105 342 347 28 26 358 45 82 31 131 68 132 97 166 122 82 90 109 170 144 133 223 231 159 156 158 174 181 172 151
100 111 138 184 334 333 299 296 321 314 318 308 316 68 91 304 289 26 353 30 37 57 91 113 95 92 73 118 51 70 76 79 182 164 121 341 270 187 157 155 184 190 197 183 184
96 100 60 351 315 315 293 316 314 305 301 295 30 86 46 333 32 325 37 51 81 81 56 91 67 88 62 81 47 15 161 238 300 199 139 143 266 167 167 169 190 199 201 205 190
85 53 10 320 318 316 304 289 294 328 336 348 64 52 6 324 316 340 346 36 45 13 21 39 54 76 43 59 224 217 236 252 256 209 164 190 261 183 193 186 196 201 206 211 203
47 10 340 316 325 330 22 24 18 356 36 82 298 121 354 299 316 4 359 18 17 53 36 10 65 78 179 225 151 128 177 251 228 176 157 224 261 230 198 207 203 207 211 211 209
19 349 320 312 316 315 69 78 128 170 62 19 66 59 54 29 26 351 14 58 50 50 341 24 80 221 134 26 133 176 254 279 273 135 187 264 260 235 180 215 203 204 211 203 161
35 333 318 310 312 22 80 104 315 132 93 347 7 49 331 55 91 334 33 76 78 50 10 122 198 308 168 45 59 194 198 245 253 340 224 327 293 281 211 215 202 219 189 151 182
45 352 331 309 43 283 46 331 348 143 73 310 344 353 10 82 47 351 22 93 34 140 84 82 319 68 92 82 109 338 272 296 306 55 278 17 286 290 272 254 233 218 172 181 167
31 357 348 22 146 60 285 328 271 61 26 302 329 284 36 74 300 9 23 29 85 100 93 267 354 34 65 328 158 240 355 302 0 118 28 355 73 263 349 265 244 207 181 171 173
13 2 60 10 47 308 325 339 45 43 266 338 349 359 44 23 18 318 28 35 135 94 41 171 167 88 221 303 198 343 97 51 61 95 7 260 134 281 212 218 310 140 169 168 164
358 29 67 95 196 325 6 46 39 129 13 268 18 53 72 7 17 34 32 18 50 14 354 341 259 0 46 23 169 58 43 341 352 9 237 155 81 249 252 236 227 202 173 163 159
3 62 356 77 327 353 56 48 178 202 204 52 95 78 87 12 20 18 68 42 44 61 73 50 320 73 16 88 182 43 119 142 283 276 286 100 237 258 227 45 20 135 141 141 156
16 358 33 333 352 61 72 71 215 202 172 153 77 98 348 44 121 80 45 164 150 60 110 21 282 123 67 121 82 70 47 171 113 55 9 250 292 280 183 116 96 130 141 171 159
70 36 298 325 11 62 78 230 218 212 153 143 173 165 193 240 139 88 211 124 124 82 127 149 320 248 56 108 45 88 159 26 16 325 297 284 285 245 269 230 202 192 190 185 149
53 42 276 352 58 52 175 222 216 225 188 155 196 153 186 163 156 176 170 174 163 96 103 119 109 295 16 193 173 64 39 54 121 134 203 300 264 216 215 205 208 202 191 176 165
98 13 308 46 57 28 171 191 206 179 189 122 110 121 166 165 137 172 211 180 170 133 98 71 144 273 242 355 54 107 187 148 126 247 221 148 273 79 262 264 212 189 178 157 156
137 243 328 89 170 234 263 222 181 165 195 157 152 188 159 158 151 180 166 185 136 115 140 166 348 335 339 28 13 204 188 119 103 76 211 152 265 158 220 190 211 172 159 148 150
78 317 327 53 43 140 160 205 196 232 153 121 135 109 118 131 20 180 165 187 121 106 111 111 160 189 211 225 168 233 192 180 149 153 202 232 282 289 236 223 207 181 159 157 161
46 254 217 233 251 161 150 155 147 181 238 177 133 209 173 153 151 187 138 145 76 134 87 120 227 210 253 257 223 235 219 183 194 195 191 265 219 280 290 219 205 174 150 159 170
168 124 9 292 85 120 167 216 177 178 151 225 197 166 188 174 194 199 152 195 183 164 139 10 246 8 290 174 196 267 231 214 224 234 258 267 277 292 76 91 151 170 168 181 185
326 327 110 299 181 134 217 193 204 141 260 79 172 128 166 192 104 82 93 76 137 146 157 132 129 67 269 339 307 297 223 183 193 202 181 220 251 155 220 220 194 179 182 186 183